Track STARLINK-3505 now! 10-day predictions STARLINK-3505 is classified as:
1 51750U 22016AN 22220.91667824 .00000392 00000-0 42729-4 0 9992 2 51750 53.2183 64.4410 0001953 62.3853 227.8682 15.08854267 1301